Location: Oberkirch
(48.5323°N, 8.0787°E)
Time: 00:00:28
(UTC+00:00)

CUBEBUG 2 - Pass Details

Date: 18 March 2026
Orbit: 548 x 627 km, 97.9° (Epoch: 13 April)

Event Time Altitude Azimuth Distance (km) Brightness Sun altitude
Rises 02:17:59 0° 10° (N) 2,904 ? -31.1°
Reaches altitude 10° 02:20:11 10° 6° (N) 2,001 ? -30.8°
Enters shadow 02:21:57 24° 359° (N) 1,321 ? -30.6°
